Flag for U.S.A. Weather past 2 weeks in Wheaton, Illinois, U.S.A.

Now
34 °F

Clear.


Feels Like: 27 °F
Forecast: 37 / 49 °F
Wind: 9 mph from South

Location: Dupage Airport

Current Time: Dec 26, 2014 at 4:57:01 AM

Latest Report: Dec 26, 2014 at 3:52 AM


Visibility: 10 mi

Pressure: 29.99 "Hg

Humidity: 88%

Dew point: 31 °F

Location of WheatonLocation

Historic Weather in Wheaton — Graph

°F

Wheaton temperature yesterday

Maximum temperature yesterday: 43 °F (at 2:52 PM)
Minimum temperature yesterday: 33 °F (at 6:52 AM)
Average temperature yesterday: 37 °F

Past Weeks' High & Low Weather Summary

 TemperatureHumidityPressure
High47 °F (Dec 14, 11:52 AM)100% (Dec 14, 9:52 AM)30.36 "Hg (Dec 14, 9:52 AM)
Low21 °F (Dec 18, 6:52 AM)64% (Dec 18, 12:52 PM)29.50 "Hg (Dec 24, 1:02 PM)
Average35 °F84%30.04 "Hg
* Reported Dec 11 3:52 AM — Dec 26 3:52 AM, Wheaton, Weather by CustomWeather, © 2014

Note: Actual official high and low records may vary slightly from our data, if they occured in-between our weather recording intervals... More about our weather records

Advertising

Wheaton weather history for previous 24 hours

 ConditionsComfort  
Time TempWeatherWind HumidityBarometerVisibility
3:52 AM
Dec 26
34 °FClear.9 mph88%29.99 "Hg10 mi
2:52 AM36 °FClear.14 mph85%29.99 "Hg10 mi
1:52 AM36 °FClear.13 mph85%30.00 "Hg10 mi
12:52 AM37 °FClear.13 mph86%30.01 "Hg10 mi
11:52 PM
Dec 25
38 °FClear.14 mph83%30.01 "Hg10 mi
10:52 PM39 °FClear.14 mph79%30.02 "Hg10 mi
9:52 PM38 °FClear.10 mph83%30.01 "Hg10 mi
8:52 PM38 °FClear.13 mph86%29.99 "Hg10 mi
7:52 PM39 °FClear.12 mph82%29.99 "Hg10 mi
6:52 PM40 °FClear.12 mph80%29.99 "Hg10 mi
5:52 PM41 °FClear.12 mph76%30.00 "Hg10 mi
4:52 PM40 °FClear.9 mph77%29.98 "Hg10 mi
3:52 PM42 °FSunny.14 mph71%29.96 "Hg10 mi
2:52 PM43 °FSunny.18 mph65%29.96 "Hg10 mi
1:52 PM42 °FSunny.13 mph65%29.96 "Hg10 mi
12:52 PM40 °FPassing clouds.15 mph70%29.96 "Hg10 mi
11:52 AM39 °FOvercast.16 mph70%29.96 "Hg10 mi
10:52 AM36 °FPartly sunny.16 mph75%29.97 "Hg10 mi
9:52 AM35 °FOvercast.15 mph75%29.97 "Hg10 mi
8:52 AM34 °FMostly cloudy.13 mph79%29.93 "Hg10 mi
7:52 AM33 °FOvercast.13 mph82%29.90 "Hg10 mi
6:52 AM33 °FOvercast.17 mph82%29.87 "Hg10 mi
5:52 AM34 °FOvercast.10 mph82%29.85 "Hg10 mi
4:52 AM34 °FOvercast.10 mph79%29.83 "Hg10 mi
Weather by CustomWeather, © 2014

See weather overviewHow to use our weather pages